[[{"header":{"parameterUnit":"m.s-1","parameterCategory":1,"la1":30.2992,"la2":30.254,"lo1":-89.0895,"lo2":-89.0443,"dy":0.0025,"dx":0.0025,"nx":19,"ny":19,"refTime":"2026-05-04T09:00:00:Z","depth":0,"parameterNumber":2,"parameterNumberName":"U-component_of_WINDS"},"data":[0,0,0,-1.2816,-1.2815,-1.2752,-1.2752,-1.2687,-1.2687,0,0,0,0,0,0,0,0,0,0,0,-1.2844,-1.2844,-1.2816,-1.2815,-1.2752,-1.2752,-1.2687,-1.2687,0,0,0,0,0,0,0,0,0,0,0,-1.2844,-1.2844,-1.2844,-1.2814,-1.2752,-1.2752,-1.2687,-1.2729,0,0,0,0,0,0,0,0,0,0,-1.2787,-1.2822,-1.2844,-1.2844,-1.2814,-1.2752,-1.2752,-1.2731,-1.2726,-1.2722,0,-1.2721,0,-1.2703,-1.2683,-1.2683,0,0,0,-1.2807,-1.2826,-1.2801,-1.2844,-1.2814,-1.2753,-1.2778,-1.2728,-1.2723,-1.2717,-1.272,-1.2717,-1.2702,-1.2683,-1.2683,-1.2684,-1.2684,0,0,-1.2811,-1.2838,-1.2804,-1.2798,-1.2809,-1.278,-1.2777,-1.2725,-1.273,-1.272,-1.2715,-1.2701,-1.2683,-1.2682,-1.2684,-1.2684,0,0,0,-1.2826,-1.284,-1.2816,-1.2801,-1.2789,-1.2779,-1.2774,-1.2733,-1.2723,-1.2715,-1.27,-1.2683,-1.2682,-1.2683,-1.2684,-1.2727,0,0,0,-1.2827,-1.2849,-1.2818,-1.2834,-1.279,-1.276,-1.2784,-1.2726,-1.2719,-1.2701,-1.2682,-1.2681,-1.2683,-1.2683,-1.2725,-1.2743,0,0,0,-1.2845,-1.2851,-1.2845,-1.2835,-1.2809,-1.276,-1.2747,-1.2724,-1.2711,-1.2683,-1.2681,-1.2682,-1.2683,-1.2723,-1.274,-1.2752,0,0,0,-1.2871,-1.2884,-1.2846,-1.2856,-1.281,-1.2788,-1.2747,-1.2729,-1.271,-1.2682,-1.2683,-1.2684,-1.2723,-1.2738,-1.275,-1.2767,-1.2776,0,0,-1.2903,-1.2889,-1.2892,-1.2857,-1.2848,-1.2795,-1.2793,-1.275,-1.2722,-1.2698,-1.2698,-1.2726,-1.274,-1.2751,-1.2819,-1.2827,0,0,0,-1.2911,-1.2914,-1.2906,-1.289,-1.2858,-1.2832,-1.2787,-1.2772,-1.275,-1.2716,-1.2732,-1.274,-1.2745,-1.2752,-1.2759,-1.2762,-1.2688,-1.2688,-1.2688,-1.2995,-1.296,-1.2963,-1.2921,-1.2906,-1.2859,-1.2844,-1.2815,-1.2783,-1.2788,-1.278,-1.2826,-1.2835,-1.2839,-1.2843,-1.2786,-1.2786,-1.2786,-1.2786,-1.3038,-1.3037,-1.2995,-1.2984,-1.2947,-1.2936,-1.2893,-1.2871,-1.2856,-1.2828,-1.2831,-1.2804,-1.2849,-1.285,-1.2789,-1.2789,-1.2788,-1.2788,-1.2788,-1.3089,-1.3083,-1.3064,-1.3037,-1.3021,-1.2977,-1.2965,-1.2931,-1.2899,-1.2902,-1.2891,-1.2891,-1.2886,-1.29,-1.29,-1.29,-1.29,-1.29,-1.29,-1.315,-1.3127,-1.3121,-1.3089,-1.3075,-1.3051,-1.3006,-1.299,-1.2965,-1.2941,-1.2941,-1.291,-1.286,-1.2848,-1.2902,-1.2902,-1.2902,-1.2902,-1.2901,-1.3208,-1.3189,-1.3181,-1.3166,-1.3126,-1.3113,-1.307,-1.3042,-1.3024,-1.302,-1.2987,-1.2956,-1.2939,-1.2934,-1.2924,-1.2994,-1.2994,-1.2994,-1.2995,-1.3251,-1.324,-1.3223,-1.3203,-1.3179,-1.3139,-1.3131,-1.3096,-1.3056,-1.3043,-1.3028,-1.3012,-1.3008,-1.2994,-1.2987,-1.2977,-1.306,-1.306,-1.306,-1.3285,-1.327,-1.3269,-1.3231,-1.3197,-1.3169,-1.316,-1.3138,-1.3089,-1.3062,-1.3032,-1.303,-1.3003,-1.2997,-1.2969,-1.2959,-1.2941,0,0]},{"header":{"parameterUnit":"m.s-1","parameterCategory":1,"la1":30.2992,"la2":30.254,"lo1":-89.0895,"lo2":-89.0443,"dy":0.0025,"dx":0.0025,"nx":19,"ny":19,"refTime":"2026-05-04T09:00:00:Z","depth":0,"parameterNumber":3,"parameterNumberName":"V-component_of_WINDS"},"data":[0,0,0,4.2339,4.2338,4.2292,4.2291,4.2252,4.2252,0,0,0,0,0,0,0,0,0,0,0,4.2367,4.2367,4.2339,4.2338,4.2292,4.2291,4.2252,4.2252,0,0,0,0,0,0,0,0,0,0,0,4.2367,4.2367,4.2367,4.2338,4.2292,4.2291,4.2252,4.228,0,0,0,0,0,0,0,0,0,0,4.2321,4.2361,4.2367,4.2367,4.2338,4.2292,4.2291,4.2281,4.2278,4.2282,0,4.2291,0,4.2271,4.225,4.225,0,0,0,4.2328,4.2363,4.2338,4.2367,4.2338,4.2292,4.231,4.2279,4.2276,4.2279,4.229,4.2288,4.227,4.225,4.225,4.2313,4.2314,0,0,4.233,4.2366,4.2341,4.2337,4.2347,4.2311,4.2308,4.2277,4.2291,4.229,4.2287,4.227,4.225,4.225,4.2312,4.2313,0,0,0,4.2345,4.2368,4.2343,4.2339,4.2329,4.231,4.2307,4.2292,4.2281,4.2286,4.2269,4.225,4.225,4.2311,4.2312,4.2386,0,0,0,4.2346,4.2376,4.2345,4.2366,4.233,4.2311,4.2324,4.2284,4.2279,4.2269,4.225,4.225,4.231,4.2312,4.2382,4.2414,0,0,0,4.2365,4.2378,4.2377,4.2368,4.2349,4.231,4.2297,4.2282,4.2269,4.225,4.225,4.231,4.2312,4.2378,4.2408,4.244,0,0,0,4.2396,4.2443,4.2378,4.2424,4.235,4.2357,4.2297,4.23,4.2293,4.225,4.231,4.2312,4.2377,4.2405,4.2437,4.2473,4.2492,0,0,4.2475,4.2454,4.2478,4.2418,4.2446,4.2361,4.2398,4.2358,4.2323,4.2318,4.2319,4.2383,4.2408,4.2439,4.2586,4.2601,0,0,0,4.2515,4.2532,4.2532,4.2527,4.2498,4.2474,4.2425,4.2409,4.2403,4.2328,4.2402,4.2416,4.2433,4.2449,4.2462,4.2473,4.2321,4.2321,4.2321,4.2677,4.2631,4.2667,4.2614,4.261,4.2558,4.2549,4.2519,4.2474,4.2492,4.249,4.2585,4.2604,4.2614,4.2626,4.2506,4.2506,4.2507,4.2507,4.2788,4.2805,4.2743,4.2756,4.2705,4.2715,4.2665,4.2633,4.2633,4.2583,4.2595,4.2544,4.2632,4.264,4.2512,4.2511,4.251,4.251,4.2509,4.2889,4.2889,4.287,4.2857,4.2852,4.2796,4.2799,4.2753,4.271,4.2723,4.2714,4.2713,4.2705,4.2722,4.2722,4.2723,4.2723,4.2723,4.2723,4.3001,4.2977,4.2986,4.2958,4.2948,4.2929,4.2875,4.2864,4.2838,4.2804,4.2804,4.2756,4.265,4.2623,4.2728,4.2727,4.2727,4.2726,4.2726,4.313,4.3093,4.3107,4.3097,4.3059,4.3056,4.2997,4.2977,4.296,4.2963,4.2911,4.2841,4.2816,4.2805,4.2783,4.2922,4.2922,4.2922,4.2922,4.3214,4.3197,4.32,4.3187,4.3168,4.3116,4.3131,4.3089,4.304,4.3026,4.3,4.2966,4.2958,4.2937,4.2924,4.2902,4.3069,4.307,4.307,4.329,4.3269,4.3291,4.3244,4.321,4.3182,4.3194,4.318,4.3116,4.3075,4.3014,4.3008,4.2954,4.2939,4.2897,4.2877,4.2837,0,0]}]]